Deer Park, WA

5:14 PM PDT on July 26, 2017 (GMT -0700)
Deer Park

Weather History for KDEW - September, 2012

Change the Weather History Date:

Wednesday, September 19, 2012

  Actual Average Record
Temperature  
Mean Temperature 61 °F 55 °F  
Max Temperature 82 °F 72 °F 90 °F (2008)
Min Temperature 39 °F 38 °F 33 °F (2004)
Degree Days  
Heating Degree Days 4 10  
Month to date heating degree days 145 138  
Since 1 July heating degree days 238 282  
Cooling Degree Days 0 0  
Month to date cooling degree days 6 10  
Year to date cooling degree days 232 185  
Growing Degree Days 10 (Base 50)    
Moisture  
Dew Point 35 °F    
Average Humidity 48    
Maximum Humidity 79    
Minimum Humidity 17    
Precipitation  
Precipitation 0.00 in 0.04 in 0.42 in (2010)
Month to date precipitation 0.01 0.60  
Year to date precipitation 17.74 14.04  
Sea Level Pressure  
Sea Level Pressure 30.10 in    
Wind  
Wind Speed 1 mph (SSE)    
Max Wind Speed 8 mph    
Max Gust Speed 9 mph    
Visibility 8 miles    
Events      
T = Trace of Precipitation, MM = Missing Value Source: NWS Daily Summary

Daily Weather History Graph

Daily Weather History Graph

Search for Another Location

Airport or City:

Trip Planner

Search our weather history database for the weather conditions in past years. The results will help you decide how hot, cold, wet, or windy it might be!

Date:

Astronomy

Sep. 19, 2012 Rise Set
Actual Time 6:33 AM PDT 6:52 PM PDT
Civil Twilight 6:02 AM PDT 7:23 PM PDT
Nautical Twilight 5:25 AM PDT 8:00 PM PDT
Astronomical Twilight 4:47 AM PDT 8:37 PM PDT
Moon 11:12 AM PDT (9/19) 8:40 PM PDT (9/19)
Length of Visible Light 13h 21m
Length of Day
12h 19m
Waxing Crescent, 18% of the Moon is Illuminated
Sep 19
Waxing Crescent
Sep 22
First Quarter
Sep 29
Full
Oct 8
Last Quarter
Oct 15
New

Hourly Weather History & Observations

Time (PDT) Temp. Dew Point Humidity Pressure Visibility Wind Dir Wind Speed Gust Speed Precip Events Conditions
12:53 AM 46.0 °F 33.1 °F 61% 30.07 in 10.0 mi Calm Calm - N/A   Clear
1:53 AM 46.9 °F 34.0 °F 61% 30.07 in 10.0 mi Calm Calm - N/A   Clear
2:53 AM 43.0 °F 32.0 °F 65% 30.09 in 10.0 mi Calm Calm - N/A   Clear
3:53 AM 45.0 °F 33.1 °F 63% 30.09 in 10.0 mi Calm Calm - N/A   Clear
4:53 AM 39.0 °F 30.9 °F 73% 30.10 in 10.0 mi Calm Calm - N/A   Clear
5:53 AM 39.0 °F 33.1 °F 79% 30.11 in 10.0 mi Calm Calm - N/A   Clear
6:53 AM 39.9 °F 34.0 °F 79% 30.13 in 10.0 mi Calm Calm - N/A   Clear
7:53 AM 51.1 °F 37.9 °F 61% 30.14 in 10.0 mi NNW 3.5 mph - N/A   Clear
8:53 AM 59.0 °F 39.0 °F 48% 30.14 in 10.0 mi Calm Calm - N/A   Clear
9:53 AM 66.0 °F 41.0 °F 40% 30.14 in 10.0 mi ENE 3.5 mph - N/A   Clear
10:53 AM 69.1 °F 43.0 °F 39% 30.14 in 10.0 mi South 4.6 mph - N/A   Clear
11:53 AM 73.0 °F 37.9 °F 28% 30.13 in 10.0 mi North - - N/A   Unknown
12:53 PM 75.9 °F 35.1 °F 23% 30.12 in 0.2 mi North - - N/A   Haze
12:56 PM 75.2 °F 35.6 °F 24% 30.13 in 3.0 mi North - - N/A   Haze
1:53 PM 79.0 °F 35.1 °F 20% 30.10 in 10.0 mi Calm Calm - N/A   Clear
2:53 PM 80.1 °F 33.1 °F 18% 30.09 in 10.0 mi SSE 3.5 mph - N/A   Clear
3:53 PM 82.0 °F 33.1 °F 17% 30.08 in 8.0 mi Calm Calm - N/A   Clear
4:53 PM 82.0 °F 33.1 °F 17% 30.07 in 9.0 mi South 3.5 mph - N/A   Clear
6:53 PM 68.0 °F 35.1 °F 30% 30.08 in 8.0 mi Calm Calm - N/A   Clear
7:53 PM 59.0 °F 35.1 °F 41% 30.09 in 8.0 mi Calm Calm - N/A   Clear
8:53 PM 55.9 °F 36.0 °F 47% 30.09 in 7.0 mi Calm Calm - N/A   Clear
9:53 PM 50.0 °F 34.0 °F 54% 30.09 in 7.0 mi Calm Calm - N/A   Clear
10:53 PM 50.0 °F 35.1 °F 57% 30.09 in 7.0 mi Calm Calm - N/A   Clear
11:53 PM 48.0 °F 35.1 °F 61% 30.09 in 8.0 mi Calm Calm - N/A   Clear